STARLINK-4681, 53594

Orbit data source: Space-Track

STARLINK-4681, 53594 is a payload satellite owned by SpaceX/Seattle (US) in LEO that was launched on Sun, 28 Aug 2022 UTC via an FALCON 9 launch vehicle from the Air Force Eastern Test Range (AFETR). Payload-class satellites include a variety of spacecraft equipped with specific instruments for various scientific and technological missions. These include communications satellites like Starlink; space stations such as the ISS; scientific satellites like the Hubble; Earth observation satellites from companies like Planet Labs, Umbra, and HawkEye 360; GPS; miniature CubeSats for education and research; and military/defense satellites.

Loading next visibility...
Identifier
53594, 2022-104G
Orbit
LEO
Country
Flag of USUS
Related business
Manufacturer
SpaceX/Seattle
Mission
Operational Commercial Communications
Bus & Motor
STARLINK, Unknown motor
Mass
300 kg wet, ~290 kg dry
Launch date (UTC)
2022-08-28 (3 years ago)
Launch vehicle
FALCON 9
Launch site
Air Force Eastern Test Range (AFETR)
Object type
Payload
Rocket body
Debris
Shape & HBR
Box + 1 Pan, 10.1 m
Radar Cross Section
13.562 m², Large (>1 m²)

Expand to show TLE details & history
Last TLE update: 18 hours ago

TLE from 18 hours ago
0 STARLINK-4681
1 53594U 22104G   25347.23597599  .00007576  00000-0  49380-3 0  9997
2 53594  53.2186 272.2034 0000983 120.5681 239.5408 15.08824158183034
Epoch: 2025-12-13T05:39Z
TLE epoch observation values (Epoch: 2025-12-13T05:39:48.325Z)
Latitude
-0.00004°
Longitude
105.08587°
Altitude
541.034 km
Speed
7.593 km/s
True Right ascension
18h 08m 48s
True Declination
0° 00' 00"
Sunlit
Object was in daylight at epoch
Visualization orbit readout
Latitude
Unknown
Longitude
Unknown
Altitude
Unknown
Speed
Unknown
Apparent Right ascension
Unknown
Apparent Declination
Unknown
Sunlit
N/A
Visualization observer readout
Local Sidereal Time
21:45:43
Azimuth
Unknown
Elevation
Unknown
Doppler factor
Unknown
Orbital elements
Apogee altitude
540.717 km
Perigee altitude
539.357 km
Semi-major axis
6,918.174 km
Eccentricity
0.0001
Inclination
53.2186°
RAAN
272.2034°
Arg. of periapsis
120.5681°
True anomaly
239.53109°
Mean anomaly
239.5408°
Eccentric anomaly
239.53595°
Mean motion
3.77186 °/min
Orbital period
95.44 mins
BSTAR
0.0004938
Loading maneuver chart data...
Computing Atmospheric mass density...
Loading historical data...
Loading historical data...
Loading historical data...
Loading historical data...
Loading historical data...
Loading historical data...
Loading historical data...

Documentation

Showing up to 5 results
|